Sedalia, MO

8:44 PM CST on November 22, 2017 (GMT -0600)
Sedalia Memorial

Weather History for KDMO - March, 2013

Change the Weather History Date:

Tuesday, March 5, 2013

  Actual Average Record
Temperature  
Mean Temperature 34 °F 42 °F  
Max Temperature 37 °F 52 °F 81 °F (1956)
Min Temperature 30 °F 32 °F -15 °F (1978)
Degree Days  
Heating Degree Days 31 23  
Month to date heating degree days 169 118  
Since 1 July heating degree days 3607 3735  
Cooling Degree Days 0 0  
Month to date cooling degree days 0 0  
Year to date cooling degree days 1 0  
Moisture  
Dew Point 24 °F    
Average Humidity 75    
Maximum Humidity 96    
Minimum Humidity 54    
Precipitation  
Precipitation T in 0.09 in 1.81 in (1959)
Month to date precipitation T 0.40  
Year to date precipitation 5.27 4.00  
Sea Level Pressure  
Sea Level Pressure 30.11 in    
Wind  
Wind Speed 19 mph (NW)    
Max Wind Speed 30 mph    
Max Gust Speed 40 mph    
Visibility 9 miles    
Events Snow    
T = Trace of Precipitation, MM = Missing Value Source: NWS Daily Summary

Daily Weather History Graph

Daily Weather History Graph

Search for Another Location

Airport or City:

Trip Planner

Search our weather history database for the weather conditions in past years. The results will help you decide how hot, cold, wet, or windy it might be!

Date:

Astronomy

Mar. 05, 2013 Rise Set
Actual Time 6:38 AM CST 6:10 PM CST
Civil Twilight 6:12 AM CST 6:36 PM CST
Nautical Twilight 5:41 AM CST 7:07 PM CST
Astronomical Twilight 5:10 AM CST 7:38 PM CST
Moon 1:48 AM CST (3/5) 11:52 AM CST (3/5)
Length of Visible Light 12h 24m
Length of Day
11h 31m
Last Quarter, 40% of the Moon is Illuminated
Mar 5
Last Quarter
Mar 11
New
Mar 19
First Quarter
Mar 27
Full
Apr 2
Last Quarter

Hourly Weather History & Observations

Time (CST) Temp. Windchill Dew Point Humidity Pressure Visibility Wind Dir Wind Speed Gust Speed Precip Events Conditions
1:53 AM 36.0 °F 27.1 °F 30.0 °F 79% 29.93 in 10.0 mi NW 13.8 mph - N/A   Overcast
2:43 AM 35.6 °F 27.1 °F 30.2 °F 81% 29.92 in 7.0 mi NW 12.7 mph - N/A   Overcast
2:53 AM 35.1 °F 26.9 °F 32.0 °F 89% 29.94 in 7.0 mi NW 11.5 mph - N/A   Overcast
3:13 AM 35.6 °F 27.1 °F 32.0 °F 87% 29.96 in 6.0 mi WNW 12.7 mph - N/A   Overcast
3:53 AM 34.0 °F 25.0 °F 32.0 °F 92% 29.99 in 4.0 mi WNW 12.7 mph - 0.00 in Snow Light Snow
4:12 AM 33.8 °F 24.8 °F 32.0 °F 93% 29.98 in 2.5 mi WNW 12.7 mph - 0.00 in Snow Light Snow
4:29 AM 33.8 °F 23.9 °F 32.0 °F 93% 29.98 in 4.0 mi WNW 15.0 mph - 0.00 in Snow Light Snow
4:53 AM 34.0 °F 23.8 °F 32.0 °F 92% 30.01 in 4.0 mi WNW 16.1 mph 23.0 mph 0.00 in Snow Light Snow
5:15 AM 35.6 °F 25.9 °F 30.2 °F 81% 30.01 in 6.0 mi NW 16.1 mph 27.6 mph 0.00 in   Overcast
5:53 AM 35.1 °F 24.8 °F 27.0 °F 72% 30.04 in 10.0 mi NW 17.3 mph - 0.00 in   Overcast
7:26 AM 33.8 °F 21.3 °F 24.8 °F 70% 30.04 in 10.0 mi WNW 24.2 mph 31.1 mph N/A   Mostly Cloudy
7:39 AM 33.8 °F 21.9 °F 21.2 °F 60% 30.05 in 10.0 mi WNW 21.9 mph 36.8 mph N/A   Overcast
7:53 AM 33.1 °F 22.6 °F 21.9 °F 64% 30.08 in 10.0 mi WNW 16.1 mph 25.3 mph N/A   Overcast
8:53 AM 32.0 °F 20.5 °F 21.0 °F 64% 30.11 in 10.0 mi NW 18.4 mph 28.8 mph N/A   Overcast
9:53 AM 32.0 °F 20.5 °F 19.0 °F 59% 30.12 in 10.0 mi NW 18.4 mph 26.5 mph N/A   Partly Cloudy
10:53 AM 30.9 °F 18.1 °F 18.0 °F 59% 30.13 in 10.0 mi WNW 21.9 mph 31.1 mph N/A   Mostly Cloudy
11:53 AM 32.0 °F 18.9 °F 18.0 °F 56% 30.15 in 10.0 mi WNW 24.2 mph 34.5 mph N/A   Overcast
12:53 PM 32.0 °F 20.5 °F 19.9 °F 61% 30.16 in 10.0 mi WNW 18.4 mph 31.1 mph N/A   Overcast
1:53 PM 34.0 °F 21.0 °F 21.0 °F 59% 30.15 in 10.0 mi WNW 26.5 mph 34.5 mph N/A   Overcast
2:53 PM 35.1 °F 23.5 °F 21.0 °F 57% 30.16 in 10.0 mi WNW 21.9 mph 34.5 mph N/A   Overcast
3:53 PM 35.1 °F 23.3 °F 21.0 °F 57% 30.18 in 10.0 mi WNW 23.0 mph 38.0 mph N/A   Overcast
4:53 PM 34.0 °F 23.0 °F 21.0 °F 59% 30.20 in 10.0 mi WNW 18.4 mph 34.5 mph N/A   Overcast
5:53 PM 33.1 °F 20.9 °F 21.0 °F 61% 30.22 in 10.0 mi NW 21.9 mph 28.8 mph N/A   Overcast
6:53 PM 32.0 °F 19.8 °F 19.9 °F 61% 30.25 in 10.0 mi NW 20.7 mph 35.7 mph N/A   Overcast
7:53 PM 32.0 °F 20.8 °F 21.0 °F 64% 30.26 in 10.0 mi NW 17.3 mph 31.1 mph N/A   Overcast
8:53 PM 30.9 °F 16.9 °F 19.9 °F 64% 30.27 in 10.0 mi NNW 26.5 mph 34.5 mph N/A   Overcast
9:53 PM 30.9 °F 18.7 °F 19.9 °F 64% 30.30 in 10.0 mi NW 19.6 mph 27.6 mph N/A   Overcast
10:53 PM 30.0 °F 18.7 °F 19.9 °F 66% 30.32 in 10.0 mi NW 16.1 mph - N/A   Overcast
11:53 PM 30.0 °F 19.1 °F 21.0 °F 69% 30.32 in 10.0 mi NW 15.0 mph 23.0 mph N/A   Overcast